Regional Weather Roundup
Issued by NWS Charleston, SC

Current Version | Previous Version | Graphics & Text | Print | Product List | Glossary On
Versions: 1 2 3 4 5 6 7 8 9 10 11 12 13 14 15 16 17 18 19 20 21 22 23 24 25 26 27 28 29 30 31 32 33 34 35 36 37 38 39 40 41 42 43 44 45 46 47 48 49 50
000
ASUS42 KCHS 230227
RWRCHS

REGIONAL WEATHER ROUNDUP
NATIONAL WEATHER SERVICE CHARLESTON SC
1000 PM EDT FRI MAY 22 2015

NOTE: "FAIR" INDICATES FEW OR NO CLOUDS BELOW 12,000 FEET WITH NO
SIGNIFICANT WEATHER AND/OR OBSTRUCTIONS TO VISIBILITY.

NOT ALL STATIONS ARE QUALITY CONTROLLED BY THE NATIONAL
WEATHER SERVICE. USE DATA WITH CAUTION...ESPECIALLY
DEWPOINT OBSERVATIONS.

SCZ027-030-031-034>040-042>050-230300-
...SOUTHEAST SOUTH CAROLINA...

CITY           SKY/WX    TMP DP  RH WIND       PRES   REMARKS
N CHARLESTON   CLEAR     67  59  75 VRB6      30.23R
WATERFRONT PAR   N/A     71  63  75 E7        30.19R
MOUNT PLEASANT FAIR      63  61  94 CALM      30.24R
JOHNS ISLAND   CLEAR     66  61  82 CALM      30.24R
PINOPOLIS        N/A     72  61  68 VRB3      30.14R
MONCKS CORNER  FAIR      66  61  82 CALM      30.24R
SUMMERVILLE    FAIR      63  61  94 CALM      30.25R
BEAUFORT MCAS  CLEAR     69  63  81 E5        30.23R
BEAUFORT ARPT  FAIR      64  63  94 CALM      30.23R
HILTON HEAD IS CLEAR     72  63  73 NE6       30.24R
WALTERBORO     CLEAR     61  57  88 SE3       30.25R
ALLENDALE      FAIR      66  57  72 CALM      30.23R

...SOUTHERN MIDLANDS AND PEE DEE...

CITY           SKY/WX    TMP DP  RH WIND       PRES   REMARKS
GEORGETOWN     NOT AVBL
KINGSTREE      NOT AVBL
ORANGEBURG     CLEAR     66  54  65 CALM      30.23R
BARNWELL       FAIR      68  54  60 E5        30.25R
AIKEN          FAIR      63  48  59 CALM      30.28R
MANNING        FAIR      59  45  58 CALM      30.25R
COLUMBIA       CLEAR     72  47  40 N3        30.23R
SUMTER         CLEAR     64  50  61 NE6       30.23R
FLORENCE       CLEAR     65  52  62 CALM      30.24R
MYRTLE BEACH   CLEAR     66  57  72 E6        30.26R
N MYRTLE BEACH CLEAR     63  60  90 CALM      30.25R

$$

GAZ063-065-086>088-099>101-113>116-118-119-134>141-150-230300-
...SOUTHEAST GEORGIA...

CITY           SKY/WX    TMP DP  RH WIND       PRES   REMARKS
SAVANNAH ARPT  PTCLDY    69  61  75 E7        30.23R
HUNTER AAF     CLEAR     68  62  80 E3        30.20R
FORT STEWART   CLEAR     67  61  81 CALM      30.20R
STATESBORO     CLEAR     64  60  88 CALM      30.24R
SYLVANIA       CLEAR     68  60  74 E5        30.24R
CLAXTON        FAIR      64  63  94 CALM      30.23R

...CSRA...CENTRAL AND FAR SOUTHEAST GEORGIA...

CITY           SKY/WX    TMP DP  RH WIND       PRES   REMARKS
THOMSON        CLEAR     62  58  87 CALM      30.29R
AUGUSTA-BUSH   CLEAR     64  54  69 CALM      30.22R
AUGUSTA-DANIEL CLEAR     73  50  44 NE6       30.24R
SWAINSBORO     FAIR      72  59  64 E3        30.24R
VIDALIA        PTCLDY    72  61  68 E5        30.23R
EASTMAN        FAIR      69  60  74 NE5       30.24R
HAZLEHURST     FAIR      73  64  73 E5        30.21R
ALMA           CLEAR     71  63  75 E6        30.20R
WAYCROSS       CLEAR     71  65  80 SE7       30.21R
JESUP          FAIR      68  64  88 CALM      30.23R
BAXLEY         FAIR      72  63  73 CALM      30.22R
BRUNSWICK      CLEAR     68  61  77 NE3       30.23R
SAINT SIMONS   NOT AVBL

$$

SCZ027-028-034-036>038-045-046-048>050-GAZ119-141-230300-
...LAKE AND SUPPLEMENTAL COASTAL OBSERVATIONS...

STATION/POSITION TIME  TEMP    WIND        PRES    WAVE   SWELL
                       AIR SEA DIR/SP/G            HT/PER HT/PER/DIR
                 (UTC) (F)     (DEG/KT/KT) (MB)    (FT/S) (FT/S/D)
UPR LAKE MARION  NOT AVBL
WINYAH BAY       0145   69      80/  5     1023.0R
LAKE MURRAY      0100   70      CALM  /  1 1022.7R
ACE BASIN NERRS  NOT AVBL
FORT PULASKI     0200   73 79   90/ 12/ 13 1023.9R
SAPELO ISLAND    0200   71      60/  6     1023.0R

$$

ANZ835-935-AMZ111-154-330-350-352-354-370-450-454-472-230300-
...C-MAN AND BUOY OBSERVATIONS...

STATION/POSITION TIME  TEMP    WIND        PRES    WAVE   SWELL
                       AIR SEA DIR/SP/G            HT/PER HT/PER/DIR
                 (UTC) (F)     (DEG/KT/KT) (MB)    (FT/S) (FT/S/D)
BUOY 41004       0150   72 76   60/ 14/ 16 1022.9R   3/ 6   2/ 6
BUOY 41008       0150   73 76   80/ 14/ 16 1022.9R   4/ 7   2/ 60/ 7
FOLLY BEACH CMAN 0200   71      90/  8/ 11 1023.8R
CAPERS NEARSHORE 0108   71     100/ 10/ 14 1023.2R
FRIPP NEARSHORE  0100   72      80/ 10/ 10 1022.4R


STATION/POSITION TIME  TEMP    WIND        PRES    WAVE   SWELL
                       AIR SEA DIR/SP/G            HT/PER HT/PER/DIR
                 (UTC) (F)     (DEG/KT/KT) (MB)    (FT/S) (FT/S/D)
5E ST. MARYS GA  0121      77                N/A     5/ 6
FRYING PAN BUOY  0150   71 74   70/ 10/ 12 1024.3R   2/ 6   2/ 60/ 6
BUOY 41025       0150   67 77   10/  6/  8 1024.4R   3/ 8   3/ 50/ 8
CAPE LOOKOUT NC  0200   67     100/  5/  7 1024.4R
BUOY 41002       0150   72 74   50/ 17/ 21 1021.8R   6/ 9   3/ 20/ 9
BUOY 41010       0120   80 81  360/  8/  8 1020.7R
ST AUGUSTINE FL  0200   74 75   40/ 14/ 15 1022.9R


$$



USA.gov is the U.S. government's official web portal to all federal, state and local government web resources and services.